Weather in Molokovo

Russia / Tver Oblast     58°09′56″N   36°45′50″E
temp.,
°C
wind,
m/s
gust,
m/s
humid.,
%
clouds,
%
prec.,
mm/h
press.,
hPa
HPBL,
m
18 april, sun
sun1800:00+5ne311755 0.0 1027241
03:00+3ne410810 0.0 1027210
06:00+3ne411810 0.0 1027242
09:00+7ene5106491 0.0 1027535
12:00+10ene61050100 0.0 10271177
15:00+10ene61052100 0.0 10271381
18:00+9ene4959100 0.0 10261135
21:00+6ene61173100 0.0 1028593
19 april, mon
mon1900:00+4ene4108093 0.0 1028508
03:00+3ene4108398 0.0 1029429
06:00+2ene41083100 0.0 1029399
09:00+4ene586812 0.0 1029618
12:00+6ene67505 0.0 10291155
15:00+8ene57435 0.0 10291476
18:00+7ene57495 0.0 10281356
21:00+3ene4116455 0.0 1029293
20 april, tue
tue2000:00+2e410695 0.0 1029300
03:000ene4117239 0.0 1028307
06:000ene41172100 0.0 1028401
09:00+3e61056100 0.0 1027671
12:00+6ese5953100 0.0 10251255
15:00+6ese61064100 0.0 10231272
18:00+4e51293100 0.5 1022989
21:00+4ese51293100 0.6 10201069
21 april, wed
wed2100:00+4e41281100 0.0 1016933
03:00+3ene61484100 0.8 1012834
06:000e61597100 3.6 1008715
09:00+1e61497100 5.6 1005715
12:00+1e51398100 6.4 1003569
15:00+2ese51299100 7.4 1001721
18:00+3e51397100 1.1 1000811
21:00+2se4698100 1.4 1000751
22 april, thu
thu2200:00+1sw4998100 1.2 1001472
03:00+1sw61297100 3.2 1006752
06:00+1sw51197100 0.2 1009809
09:00+2sw4998100 0.4 1011893
12:00+6sw5877100 0.1 10131063
15:00+9ssw576791 0.3 10141392
18:00+8ssw477845 0.1 1015613
21:00+5sse389341 0.1 1016140